Tracking 30009 objects as of 7-Dec-2024
HD Live streaming from Space Station
objects crossing your sky now

CZ-4 DEB

Track CZ-4 DEB now!
10-day predictions


NORAD ID: 31131
Int'l Code: 2003-049D
Perigee: 690.4 km
Apogee: 866.4 km
Inclination: 98.9 °
Period: 100.3 minutes
Semi major axis: 7149 km
RCS: 0.0196 m2 (small)
Launch date: October 21, 2003
Source: People's Republic of China (PRC)
Launch site: Taiyaun Space Center, China (TSC)

Note: This is SATELLITE DEBRIS
Your satellite tracking list
Your tracking list is empty




NASA's NSSDC Master Catalog

Two Line Element Set (TLE):
1 31131U 03049D   24340.89011785  .00004624  00000-0  14708-2 0  9995
2 31131  98.8782 346.0408 0123103 284.6956 193.5087 14.36136435919512
Source of the keplerian elements: AFSPC